Total_Precipitation_Accumulation
0.36 0.35 0.32 0.30 0.27 0.26 0.27 0.28 0.28 0.30 0.32 0.36 0.38 0.36 0.38 0.36 0.31 0.30 0.25 0.22 0.22 0.30 0.44 0.61 0.80 1.01 1.21 1.29 1.30 1.22 1.14 1.05 0.93 0.86 0.85 0.89 0.99 1.09 1.15 1.11 1.16 1.20 1.18
0.33 0.34 0.35 0.34 0.30 0.27 0.28 0.28 0.27 0.30 0.32 0.33 0.32 0.32 0.33 0.31 0.29 0.30 0.30 0.29 0.26 0.28 0.38 0.50 0.63 0.81 1.10 1.34 1.43 1.35 1.26 1.23 1.19 1.13 1.02 0.98 1.00 1.07 1.17 1.24 1.10 1.05 1.03
0.38 0.34 0.34 0.34 0.34 0.35 0.35 0.33 0.33 0.35 0.34 0.33 0.34 0.33 0.33 0.30 0.29 0.32 0.33 0.31 0.31 0.30 0.35 0.47 0.56 0.68 0.92 1.22 1.48 1.63 1.46 1.38 1.41 1.40 1.26 1.13 1.06 1.11 1.14 1.26 1.30 1.21 1.11
0.38 0.42 0.40 0.37 0.36 0.38 0.43 0.43 0.38 0.37 0.35 0.34 0.34 0.35 0.34 0.34 0.31 0.31 0.35 0.34 0.34 0.33 0.33 0.39 0.50 0.61 0.81 1.03 1.30 1.66 1.74 1.64 1.60 1.58 1.51 1.39 1.22 1.20 1.24 1.30 1.38 1.41 1.35
0.37 0.40 0.42 0.41 0.44 0.47 0.47 0.49 0.47 0.50 0.47 0.42 0.40 0.41 0.42 0.43 0.42 0.40 0.42 0.41 0.38 0.35 0.34 0.37 0.43 0.47 0.61 0.84 1.10 1.41 1.69 1.80 1.75 1.74 1.69 1.62 1.48 1.31 1.31 1.38 1.44 1.55 1.59
0.40 0.40 0.41 0.44 0.48 0.53 0.54 0.53 0.50 0.50 0.52 0.54 0.58 0.55 0.55 0.55 0.51 0.44 0.44 0.46 0.43 0.39 0.41 0.40 0.40 0.38 0.42 0.56 0.82 1.13 1.46 1.73 1.84 1.86 1.89 1.87 1.76 1.61 1.43 1.41 1.43 1.57 1.73
0.44 0.45 0.44 0.45 0.48 0.48 0.46 0.46 0.50 0.50 0.47 0.49 0.57 0.57 0.53 0.51 0.47 0.43 0.45 0.51 0.57 0.57 0.56 0.56 0.54 0.46 0.43 0.45 0.50 0.70 1.03 1.45 1.79 1.92 1.97 2.00 1.98 1.91 1.76 1.60 1.54 1.59 1.75
0.50 0.50 0.50 0.49 0.48 0.47 0.44 0.41 0.43 0.45 0.43 0.43 0.51 0.56 0.52 0.48 0.41 0.34 0.37 0.46 0.54 0.60 0.64 0.63 0.64 0.63 0.57 0.51 0.41 0.43 0.60 0.97 1.46 1.90 2.10 2.18 2.28 2.27 2.15 1.95 1.80 1.80 1.88
0.51 0.50 0.53 0.56 0.54 0.51 0.47 0.44 0.43 0.43 0.43 0.41 0.44 0.62 0.67 0.52 0.36 0.26 0.26 0.30 0.35 0.39 0.44 0.49 0.55 0.60 0.63 0.61 0.53 0.44 0.43 0.63 0.98 1.48 2.02 2.35 2.58 2.77 2.70 2.42 2.20 2.07 2.04
0.56 0.53 0.55 0.58 0.60 0.55 0.49 0.47 0.46 0.45 0.47 0.49 0.45 0.45 0.49 0.49 0.55 0.40 0.22 0.20 0.21 0.23 0.27 0.32 0.36 0.42 0.50 0.55 0.59 0.61 0.58 0.57 0.82 1.11 1.58 2.14 2.67 3.11 3.38 3.14 2.72 2.40 2.25
0.60 0.58 0.59 0.59 0.60 0.56 0.53 0.51 0.49 0.50 0.51 0.52 0.53 0.50 0.45 0.40 0.43 0.54 0.37 0.22 0.20 0.18 0.19 0.23 0.27 0.31 0.36 0.45 0.52 0.61 0.69 0.69 0.85 1.04 1.27 1.69 2.28 3.02 3.57 3.62 3.28 2.88 2.57
0.69 0.67 0.67 0.62 0.59 0.54 0.52 0.51 0.50 0.50 0.49 0.49 0.52 0.54 0.54 0.54 0.47 0.50 0.46 0.28 0.24 0.21 0.20 0.21 0.25 0.30 0.37 0.45 0.52 0.67 0.73 0.78 0.88 1.03 1.08 1.31 1.72 2.37 3.19 3.66 3.61 3.34 3.02
0.67 0.65 0.64 0.61 0.59 0.55 0.51 0.51 0.53 0.54 0.53 0.54 0.53 0.52 0.50 0.48 0.46 0.54 0.60 0.44 0.31 0.23 0.23 0.25 0.24 0.28 0.36 0.44 0.50 0.62 0.65 0.70 0.78 0.90 0.96 0.96 1.11 1.59 2.40 3.28 3.76 3.73 3.54
0.66 0.62 0.65 0.64 0.59 0.56 0.56 0.55 0.56 0.56 0.58 0.59 0.57 0.56 0.57 0.51 0.51 0.56 0.66 0.72 0.61 0.35 0.25 0.21 0.20 0.24 0.30 0.37 0.44 0.56 0.55 0.60 0.64 0.75 0.87 0.91 0.91 1.05 1.52 2.36 3.27 3.86 3.90
0.72 0.69 0.69 0.70 0.69 0.68 0.69 0.68 0.66 0.62 0.63 0.63 0.62 0.63 0.65 0.60 0.57 0.56 0.60 0.74 0.97 0.81 0.40 0.21 0.19 0.21 0.27 0.33 0.42 0.47 0.46 0.55 0.61 0.66 0.76 0.87 0.93 0.98 1.14 1.48 2.20 3.09 3.78
0.74 0.75 0.74 0.70 0.69 0.71 0.77 0.83 0.80 0.73 0.72 0.70 0.69 0.70 0.71 0.68 0.66 0.64 0.64 0.67 0.81 0.97 0.70 0.28 0.23 0.24 0.30 0.35 0.43 0.47 0.46 0.53 0.59 0.64 0.68 0.73 0.84 0.95 1.07 1.21 1.52 2.20 2.97
0.77 0.79 0.79 0.77 0.73 0.72 0.76 0.80 0.81 0.81 0.83 0.81 0.81 0.82 0.76 0.72 0.76 0.73 0.72 0.72 0.73 0.86 0.87 0.38 0.25 0.28 0.39 0.47 0.47 0.47 0.46 0.48 0.50 0.59 0.64 0.67 0.72 0.81 0.94 1.07 1.23 1.61 2.29
0.73 0.79 0.83 0.82 0.78 0.76 0.79 0.84 0.83 0.82 0.87 0.89 0.89 0.89 0.85 0.83 0.83 0.81 0.86 0.84 0.77 0.76 0.86 0.64 0.35 0.32 0.38 0.47 0.51 0.52 0.50 0.49 0.48 0.54 0.61 0.67 0.72 0.78 0.85 0.97 1.12 1.29 1.67
0.86 0.87 0.90 0.93 0.87 0.85 0.88 0.90 0.90 0.89 0.88 0.89 0.91 0.96 0.95 0.95 0.95 0.92 0.93 0.94 0.90 0.81 0.83 0.83 0.54 0.40 0.41 0.48 0.58 0.59 0.57 0.59 0.56 0.59 0.61 0.67 0.76 0.81 0.85 0.92 1.04 1.18 1.30
0.99 1.03 1.02 1.02 1.01 1.02 1.20 1.23 1.11 1.04 0.98 0.93 0.94 0.98 1.02 1.07 1.08 1.10 1.16 1.15 1.12 1.11 1.03 0.99 0.80 0.61 0.57 0.58 0.69 0.71 0.65 0.63 0.67 0.65 0.68 0.67 0.72 0.79 0.82 0.84 0.87 0.94 1.12
1.13 1.12 1.14 1.11 1.11 1.20 1.50 1.62 1.37 1.22 1.14 1.08 1.01 1.00 1.02 1.11 1.25 1.42 1.56 1.49 1.39 1.41 1.35 1.29 1.11 0.90 0.77 0.78 0.86 0.81 0.81 0.72 0.75 0.77 0.74 0.69 0.68 0.67 0.72 0.83 0.92 0.98 1.05
1.19 1.21 1.18 1.14 1.09 1.20 1.57 1.65 1.38 1.17 1.01 0.99 0.97 0.91 0.90 0.97 1.05 1.19 1.38 1.40 1.39 1.54 1.61 1.53 1.36 1.17 0.90 0.82 0.91 1.05 1.12 1.13 1.02 0.84 0.86 0.84 0.80 0.80 0.78 0.80 0.94 1.01 1.10
1.01 1.02 1.04 1.04 0.99 1.01 1.40 1.52 1.27 0.95 0.82 0.82 0.79 0.78 0.76 0.78 0.88 0.84 0.98 1.06 1.11 1.21 1.39 1.53 1.57 1.29 1.07 0.98 1.17 1.35 1.36 1.33 1.07 0.91 1.05 1.16 1.03 0.98 0.91 0.94 1.04 1.01 1.09
0.91 0.88 0.82 0.80 0.80 0.88 1.24 1.48 1.29 0.85 0.74 0.75 0.75 0.74 0.72 0.71 0.77 0.92 1.00 0.97 0.89 0.89 1.06 1.27 1.45 1.35 1.24 1.27 1.52 1.77 1.84 1.84 1.53 1.22 1.19 1.41 1.26 1.20 1.14 1.10 1.11 1.03 1.07
0.73 0.77 0.75 0.70 0.69 0.72 1.03 1.40 1.33 0.95 0.88 0.82 0.80 0.82 0.82 0.73 0.82 1.03 1.10 1.05 0.89 0.81 0.88 1.12 1.34 1.46 1.54 1.71 1.95 2.26 2.35 2.40 2.21 1.76 1.48 1.51 1.42 1.35 1.35 1.30 1.26 1.20 1.13
0.60 0.61 0.66 0.68 0.66 0.65 0.81 1.21 1.38 1.02 0.93 0.86 0.83 0.87 1.00 0.98 0.98 1.05 1.08 1.13 1.09 0.87 0.78 0.85 0.94 1.06 1.17 1.35 1.69 1.94 2.12 2.32 2.26 2.12 1.74 1.64 1.64 1.62 1.75 1.49 1.29 1.20 1.15